Tracking 18987 objects as of 25-Feb-2018
HD Live streaming from Space Station
objects crossing your sky now

COSMOS 618

Track COSMOS 618 now!
10-day predictions
COSMOS 618 is classified as:


NORAD ID: 6986
Int'l Code: 1973-104B
Perigee: 1,450.7 km
Apogee: 1,493.5 km
Inclination: 74.0 °
Period: 115.2 minutes
Semi major axis: 7843 km
RCS: 0.6754 m2 (medium)
Launch date: December 19, 1973
Source: Commonwealth of Independent States (former USSR) (CIS)
Launch site: PLESETSK MISSILE AND SPACE COMPLEX (PKMTR)
aabbcc
Your satellite tracking list
Your tracking list is empty




NASA's NSSDC Master Catalog

Two Line Element Set (TLE):
1  6986U 73104B   18055.51389229 -.00000005 +00000-0 +73952-4 0  9998
2  6986 074.0288 045.0377 0027266 356.1308 108.5933 12.49882623016051
Source of the keplerian elements: AFSPC